Погода в Верхнем Баскунчаке

Россия / Астраханская область     48°13′32″N   46°43′18″E
темп.,
°C
ветер,
м/с
пор.,
м/с
влажн.,
%
обл.,
%
осадки,
мм/ч
давл.,
гПа
погр.,
м
14 апреля, ср
ср1401:00+13в4736100 0.0 102388
04:00+11в5124089 0.0 1022179
07:00+10в61344100 0.0 1021214
10:00+17в81134100 0.0 1020440
13:00+22вюв892382 0.0 10191344
16:00+23юв891793 0.0 10172178
19:00+19ююв343357 0.0 101754
22:00+15юв45372 0.0 101763
15 апреля, чт
чт1501:00+13ю343799 0.0 101640
04:00+12с454767 0.0 101660
07:00+12св3447100 0.0 101552
10:00+17вюв333899 0.0 1015409
13:00+20в3430100 0.0 10141284
16:00+22св2423100 0.0 10132383
19:00+20ссз3332100 0.0 101241
22:00+16сз611499 0.0 1013192
16 апреля, пт
пт1601:00+13сз6105535 0.0 1013184
04:00+12ссз576160 0.0 1013110
07:00+12сз465517 0.0 101495
10:00+18сз45365 0.0 1015463
13:00+22ссз54285 0.0 10151351
16:00+23ссз432610 0.0 10152484
19:00+20сз463894 0.0 1015110
22:00+17с44455 0.0 101651
17 апреля, сб
сб1701:00+15с125243 0.0 101612
04:00+13ююз115299 0.0 101611
07:00+13зсз4866100 0.0 1018201
10:00+17сз7857100 0.0 1019563
13:00+19зсз655140 0.0 10191334
16:00+18з8749100 0.2 10201219
19:00+15юз575990 0.0 1020442
22:00+14юз3461100 0.0 1020118
18 апреля, вс
вс1801:00+13ссз3467100 0.1 1020130
04:00+12зсз3477100 0.1 102085
07:00+10зсз368290 0.0 1020171
10:00+15зсз44565 0.0 10201088
13:00+18зсз44375 0.0 10202297
16:00+19сз443172 0.0 10192477
19:00+17ссз4542100 0.0 1019209
22:00+14с4763100 0.0 1019200